Newport News, VA

10:44 PM EDT on October 18, 2017 (GMT -0400)
Newport News-Williamsburg International

Weather History for KPHF - July, 2014

Change the Weather History Date:

Tuesday, July 29, 2014

  Actual Average Record
Temperature  
Mean Temperature 75 °F -  
Max Temperature 84 °F 88 °F 100 °F (1949)
Min Temperature 68 °F 71 °F 33 °F (1996)
Cooling Degree Days 10    
Growing Degree Days 25 (Base 50)    
Moisture  
Dew Point 58 °F    
Average Humidity 57    
Maximum Humidity 73    
Minimum Humidity 37    
Precipitation  
Precipitation 0.00 in - - ()
Sea Level Pressure  
Sea Level Pressure 29.93 in    
Wind  
Wind Speed 7 mph (North)    
Max Wind Speed 10 mph    
Max Gust Speed -    
Visibility 10 miles    
Events      
Averages and records for this station are not official NWS values.
T = Trace of Precipitation, MM = Missing Value Source: NWS Daily Summary

Daily Weather History Graph

Daily Weather History Graph

Search for Another Location

Airport or City:

Trip Planner

Search our weather history database for the weather conditions in past years. The results will help you decide how hot, cold, wet, or windy it might be!

Date:

Astronomy

Jul. 29, 2014 Rise Set
Actual Time 6:08 AM EDT 8:15 PM EDT
Civil Twilight 5:39 AM EDT 8:44 PM EDT
Nautical Twilight 5:03 AM EDT 9:20 PM EDT
Astronomical Twilight 4:25 AM EDT 9:58 PM EDT
Moon 8:38 AM EDT (7/29) 9:32 PM EDT (7/29)
Length of Visible Light 15h 05m
Length of Day
14h 07m
Waxing Crescent, 7% of the Moon is Illuminated
Jul 29
Waxing Crescent
Aug 3
First Quarter
Aug 10
Full
Aug 17
Last Quarter
Aug 25
New

Hourly Weather History & Observations

Time (EDT) Temp. Heat Index Dew Point Humidity Pressure Visibility Wind Dir Wind Speed Gust Speed Precip Events Conditions
12:54 AM 73.0 °F - 57.9 °F 59% 29.83 in 10.0 mi NW 3.5 mph - N/A   Clear
1:54 AM 75.0 °F - 57.9 °F 55% 29.83 in 10.0 mi NNW 10.4 mph - N/A   Clear
2:54 AM 73.0 °F - 57.9 °F 59% 29.84 in 10.0 mi North 6.9 mph - N/A   Clear
3:54 AM 72.0 °F - 57.9 °F 61% 29.85 in 10.0 mi North 8.1 mph - N/A   Clear
4:54 AM 70.0 °F - 59.0 °F 68% 29.87 in 10.0 mi North 6.9 mph - N/A   Clear
5:54 AM 68.0 °F - 59.0 °F 73% 29.89 in 10.0 mi WNW 4.6 mph - N/A   Clear
6:54 AM 69.1 °F - 60.1 °F 73% 29.91 in 10.0 mi NNW 5.8 mph - N/A   Scattered Clouds
7:54 AM 73.0 °F - 60.1 °F 64% 29.92 in 10.0 mi NNW 10.4 mph - N/A   Mostly Cloudy
8:54 AM 73.0 °F - 60.1 °F 64% 29.93 in 10.0 mi North 8.1 mph - N/A   Overcast
9:54 AM 75.9 °F - 61.0 °F 60% 29.93 in 10.0 mi NNW 10.4 mph - N/A   Mostly Cloudy
10:54 AM 78.1 °F - 60.1 °F 54% 29.93 in 10.0 mi North 9.2 mph - N/A   Clear
11:54 AM 79.0 °F - 59.0 °F 50% 29.94 in 10.0 mi North 9.2 mph - N/A   Clear
12:54 PM 81.0 °F 81.3 °F 59.0 °F 47% 29.94 in 10.0 mi North 8.1 mph - N/A   Scattered Clouds
1:54 PM 82.0 °F 82.0 °F 57.9 °F 44% 29.94 in 10.0 mi North 8.1 mph - N/A   Partly Cloudy
2:54 PM 81.0 °F 80.5 °F 54.0 °F 39% 29.94 in 10.0 mi Variable 5.8 mph - N/A   Partly Cloudy
3:54 PM 82.9 °F 81.9 °F 54.0 °F 37% 29.93 in 10.0 mi North 8.1 mph - N/A   Scattered Clouds
4:54 PM 82.9 °F 81.9 °F 54.0 °F 37% 29.94 in 10.0 mi ENE 6.9 mph - N/A   Clear
5:54 PM 82.4 °F 82.0 °F 57.2 °F 42% 29.94 in 10.0 mi North 4.6 mph - N/A   Clear
6:54 PM 79.0 °F - 57.9 °F 48% 29.95 in 10.0 mi North 4.6 mph - N/A   Clear
7:54 PM 73.9 °F - 62.1 °F 66% 29.96 in 10.0 mi North 4.6 mph - N/A   Clear
8:54 PM 71.1 °F - 59.0 °F 66% 29.98 in 10.0 mi NE 3.5 mph - N/A   Clear
9:54 PM 70.0 °F - 57.9 °F 65% 29.99 in 10.0 mi NE 3.5 mph - N/A   Mostly Cloudy
10:54 PM 70.0 °F - 60.1 °F 71% 30.01 in 10.0 mi ENE 3.5 mph - N/A   Mostly Cloudy
11:54 PM 72.0 °F - 59.0 °F 64% 30.02 in 10.0 mi North 4.6 mph - N/A   Mostly Cloudy